Precipitable_Water
1.20 1.20 1.21 1.20 1.21 1.20 1.22 1.24 1.26 1.31 1.32 1.34 1.31 1.31 1.34 1.35 1.34 1.35 1.36 1.35 1.35 1.29 1.23 1.19 1.15 1.05 0.97 0.94 0.91 0.87 0.72 0.66 0.63 0.59 0.56 0.54 0.53 0.51 0.50 0.47 0.43 0.43 0.44 0.45 0.47 0.48 0.47 0.45 0.44 0.42 0.41 0.39 0.38 0.36 0.32 0.29 0.29 0.28 0.28 0.28 0.28 0.29 0.28 0.25 0.22 0.23 0.27 0.31 0.29 0.25 0.25 0.23 0.19 0.20 0.20 0.19 0.20 0.25 0.29 0.32 0.33 0.34 0.35 0.36 0.38
1.19 1.19 1.20 1.20 1.19 1.20 1.21 1.25 1.28 1.30 1.30 1.31 1.30 1.32 1.32 1.33 1.33 1.34 1.32 1.32 1.29 1.23 1.18 1.16 1.06 0.99 0.93 0.92 0.92 0.80 0.69 0.63 0.61 0.57 0.54 0.52 0.51 0.51 0.47 0.44 0.42 0.42 0.42 0.43 0.45 0.47 0.47 0.45 0.43 0.43 0.42 0.40 0.38 0.35 0.33 0.31 0.30 0.29 0.29 0.29 0.29 0.30 0.32 0.26 0.24 0.23 0.22 0.26 0.25 0.24 0.23 0.24 0.18 0.20 0.19 0.19 0.20 0.24 0.26 0.29 0.32 0.33 0.35 0.37 0.37
1.22 1.20 1.19 1.18 1.18 1.20 1.23 1.25 1.27 1.28 1.27 1.28 1.29 1.29 1.30 1.30 1.32 1.30 1.29 1.25 1.23 1.19 1.15 1.07 1.02 0.95 0.94 0.92 0.86 0.74 0.65 0.60 0.58 0.55 0.52 0.51 0.50 0.47 0.45 0.43 0.41 0.40 0.41 0.42 0.44 0.47 0.46 0.45 0.44 0.44 0.43 0.39 0.37 0.35 0.33 0.31 0.31 0.30 0.30 0.31 0.29 0.30 0.31 0.30 0.26 0.22 0.22 0.23 0.24 0.20 0.20 0.20 0.19 0.18 0.20 0.20 0.22 0.24 0.26 0.28 0.30 0.32 0.35 0.37 0.36
1.20 1.18 1.18 1.18 1.19 1.19 1.22 1.25 1.25 1.25 1.25 1.27 1.26 1.27 1.28 1.29 1.29 1.27 1.25 1.22 1.16 1.13 1.07 1.02 0.93 0.93 0.92 0.85 0.76 0.67 0.62 0.58 0.56 0.54 0.53 0.52 0.49 0.46 0.45 0.43 0.42 0.42 0.42 0.42 0.44 0.46 0.47 0.46 0.46 0.45 0.42 0.39 0.36 0.34 0.33 0.32 0.31 0.31 0.30 0.29 0.30 0.29 0.30 0.30 0.28 0.25 0.25 0.21 0.22 0.20 0.20 0.18 0.18 0.20 0.20 0.20 0.21 0.23 0.26 0.28 0.31 0.32 0.34 0.36 0.36
1.18 1.16 1.17 1.16 1.18 1.19 1.21 1.23 1.21 1.23 1.25 1.25 1.23 1.24 1.25 1.26 1.26 1.24 1.21 1.15 1.10 1.03 0.97 0.90 0.90 0.90 0.83 0.76 0.69 0.64 0.60 0.57 0.54 0.53 0.54 0.53 0.49 0.46 0.44 0.43 0.43 0.43 0.44 0.43 0.44 0.46 0.48 0.47 0.47 0.46 0.43 0.38 0.36 0.33 0.32 0.30 0.31 0.31 0.29 0.29 0.29 0.28 0.28 0.27 0.25 0.27 0.25 0.21 0.20 0.21 0.20 0.18 0.18 0.19 0.20 0.17 0.19 0.22 0.25 0.26 0.28 0.30 0.33 0.35 0.36
1.17 1.16 1.17 1.16 1.16 1.18 1.21 1.20 1.19 1.21 1.23 1.22 1.20 1.20 1.22 1.22 1.21 1.19 1.15 1.06 1.00 0.95 0.88 0.88 0.87 0.83 0.77 0.71 0.66 0.62 0.59 0.56 0.53 0.53 0.53 0.52 0.49 0.46 0.45 0.45 0.45 0.45 0.44 0.44 0.44 0.48 0.49 0.48 0.47 0.47 0.44 0.40 0.37 0.35 0.32 0.30 0.29 0.28 0.28 0.27 0.26 0.26 0.24 0.24 0.25 0.27 0.26 0.22 0.20 0.17 0.19 0.17 0.16 0.17 0.18 0.18 0.18 0.18 0.20 0.25 0.28 0.30 0.31 0.32 0.33
1.17 1.17 1.18 1.17 1.16 1.18 1.19 1.18 1.19 1.20 1.20 1.19 1.18 1.18 1.18 1.19 1.16 1.11 1.07 1.00 0.92 0.87 0.87 0.85 0.85 0.80 0.74 0.69 0.65 0.63 0.60 0.56 0.54 0.54 0.53 0.50 0.48 0.48 0.48 0.46 0.46 0.45 0.45 0.45 0.46 0.47 0.47 0.46 0.46 0.47 0.45 0.43 0.40 0.36 0.33 0.29 0.27 0.26 0.27 0.25 0.24 0.22 0.21 0.21 0.24 0.25 0.24 0.22 0.20 0.19 0.17 0.17 0.17 0.14 0.17 0.19 0.20 0.21 0.20 0.20 0.22 0.28 0.30 0.31 0.30
1.16 1.17 1.18 1.17 1.17 1.18 1.19 1.19 1.18 1.19 1.20 1.18 1.16 1.16 1.17 1.14 1.11 1.07 1.01 0.93 0.88 0.87 0.86 0.85 0.82 0.76 0.72 0.68 0.66 0.64 0.60 0.56 0.55 0.54 0.52 0.51 0.51 0.50 0.48 0.46 0.46 0.45 0.45 0.44 0.44 0.44 0.44 0.45 0.46 0.48 0.47 0.47 0.44 0.39 0.34 0.28 0.26 0.25 0.25 0.22 0.20 0.18 0.17 0.18 0.21 0.23 0.23 0.21 0.18 0.17 0.17 0.15 0.16 0.17 0.18 0.18 0.17 0.18 0.23 0.23 0.21 0.23 0.26 0.30 0.32
1.15 1.16 1.18 1.17 1.17 1.19 1.19 1.18 1.18 1.18 1.18 1.16 1.14 1.13 1.13 1.10 1.06 1.02 0.95 0.91 0.89 0.89 0.89 0.85 0.79 0.74 0.73 0.70 0.67 0.64 0.61 0.58 0.56 0.55 0.53 0.54 0.53 0.51 0.49 0.47 0.46 0.45 0.44 0.43 0.43 0.43 0.44 0.45 0.46 0.47 0.48 0.47 0.45 0.41 0.34 0.28 0.25 0.22 0.21 0.19 0.18 0.17 0.16 0.15 0.17 0.20 0.22 0.19 0.18 0.18 0.15 0.15 0.17 0.17 0.16 0.16 0.17 0.17 0.21 0.23 0.22 0.25 0.28 0.28 0.30
1.15 1.16 1.17 1.17 1.19 1.19 1.18 1.17 1.15 1.15 1.14 1.12 1.11 1.11 1.11 1.07 1.01 0.97 0.93 0.91 0.91 0.91 0.88 0.84 0.78 0.74 0.71 0.70 0.68 0.66 0.64 0.62 0.60 0.57 0.57 0.55 0.53 0.51 0.50 0.48 0.48 0.46 0.45 0.43 0.41 0.41 0.41 0.42 0.43 0.43 0.43 0.42 0.39 0.32 0.30 0.29 0.27 0.24 0.21 0.19 0.18 0.16 0.15 0.14 0.14 0.17 0.19 0.17 0.17 0.17 0.15 0.15 0.17 0.18 0.17 0.18 0.20 0.21 0.20 0.22 0.21 0.23 0.25 0.25 0.27
1.14 1.17 1.16 1.19 1.19 1.18 1.15 1.14 1.13 1.10 1.10 1.10 1.10 1.09 1.08 1.05 0.98 0.95 0.94 0.92 0.91 0.91 0.89 0.85 0.79 0.75 0.73 0.71 0.69 0.68 0.67 0.65 0.63 0.60 0.58 0.56 0.54 0.51 0.49 0.49 0.50 0.49 0.46 0.42 0.39 0.39 0.39 0.39 0.40 0.40 0.38 0.37 0.34 0.32 0.32 0.31 0.28 0.26 0.26 0.27 0.27 0.21 0.16 0.13 0.13 0.15 0.16 0.17 0.18 0.18 0.17 0.17 0.17 0.19 0.19 0.20 0.21 0.21 0.21 0.22 0.22 0.22 0.22 0.22 0.20
1.14 1.17 1.19 1.20 1.19 1.16 1.13 1.12 1.10 1.09 1.08 1.07 1.07 1.07 1.07 1.04 0.98 0.95 0.93 0.92 0.91 0.91 0.89 0.85 0.80 0.77 0.75 0.73 0.70 0.70 0.68 0.67 0.64 0.62 0.59 0.57 0.55 0.54 0.53 0.52 0.52 0.50 0.47 0.43 0.40 0.37 0.36 0.38 0.40 0.39 0.38 0.37 0.37 0.35 0.35 0.33 0.31 0.31 0.31 0.31 0.30 0.28 0.25 0.19 0.16 0.14 0.16 0.17 0.18 0.19 0.19 0.18 0.19 0.20 0.20 0.21 0.21 0.22 0.22 0.23 0.22 0.22 0.22 0.23 0.24
1.15 1.17 1.20 1.20 1.19 1.16 1.12 1.09 1.08 1.08 1.08 1.08 1.08 1.06 1.05 1.03 0.98 0.94 0.92 0.93 0.92 0.90 0.89 0.86 0.82 0.80 0.77 0.73 0.71 0.70 0.68 0.68 0.66 0.64 0.62 0.60 0.59 0.58 0.56 0.55 0.53 0.50 0.47 0.42 0.37 0.37 0.41 0.45 0.45 0.43 0.42 0.42 0.39 0.39 0.38 0.35 0.34 0.33 0.33 0.32 0.32 0.31 0.29 0.25 0.23 0.19 0.19 0.20 0.21 0.21 0.21 0.22 0.21 0.21 0.23 0.24 0.26 0.22 0.23 0.22 0.22 0.23 0.24 0.24 0.25
1.16 1.18 1.19 1.19 1.19 1.16 1.12 1.09 1.08 1.09 1.10 1.09 1.09 1.06 1.04 1.02 1.01 0.97 0.94 0.92 0.90 0.89 0.90 0.88 0.85 0.82 0.80 0.76 0.74 0.72 0.71 0.71 0.71 0.70 0.67 0.65 0.63 0.60 0.58 0.57 0.54 0.50 0.44 0.41 0.40 0.41 0.45 0.46 0.42 0.39 0.42 0.44 0.43 0.45 0.41 0.36 0.35 0.34 0.33 0.33 0.33 0.32 0.32 0.29 0.25 0.23 0.24 0.25 0.24 0.23 0.25 0.27 0.25 0.25 0.27 0.30 0.26 0.23 0.22 0.22 0.24 0.23 0.24 0.25 0.28
1.16 1.18 1.17 1.18 1.18 1.16 1.12 1.09 1.09 1.10 1.10 1.09 1.08 1.06 1.05 1.04 1.02 1.01 0.96 0.91 0.88 0.88 0.90 0.88 0.87 0.86 0.85 0.82 0.79 0.78 0.78 0.78 0.76 0.74 0.71 0.68 0.65 0.62 0.61 0.59 0.55 0.48 0.46 0.44 0.42 0.44 0.46 0.44 0.39 0.37 0.41 0.45 0.49 0.44 0.38 0.34 0.34 0.34 0.35 0.35 0.35 0.33 0.33 0.31 0.27 0.25 0.24 0.27 0.27 0.28 0.29 0.31 0.30 0.31 0.31 0.31 0.29 0.28 0.27 0.25 0.25 0.26 0.28 0.30 0.29
1.16 1.18 1.17 1.18 1.17 1.16 1.12 1.10 1.10 1.09 1.08 1.07 1.06 1.04 1.04 1.04 1.02 1.02 1.00 0.96 0.94 0.92 0.90 0.89 0.88 0.88 0.89 0.88 0.84 0.82 0.81 0.80 0.79 0.77 0.74 0.71 0.68 0.65 0.63 0.60 0.54 0.50 0.48 0.48 0.48 0.48 0.46 0.41 0.36 0.38 0.42 0.48 0.47 0.40 0.35 0.34 0.33 0.32 0.33 0.34 0.35 0.34 0.33 0.33 0.32 0.28 0.27 0.30 0.31 0.31 0.32 0.32 0.33 0.33 0.33 0.32 0.31 0.31 0.30 0.29 0.29 0.29 0.27 0.25 0.24
1.15 1.17 1.17 1.18 1.18 1.17 1.14 1.11 1.10 1.08 1.08 1.07 1.05 1.05 1.04 1.03 1.03 1.02 0.99 0.97 0.94 0.92 0.89 0.89 0.90 0.90 0.91 0.91 0.88 0.85 0.83 0.82 0.80 0.78 0.76 0.74 0.71 0.68 0.65 0.61 0.57 0.53 0.51 0.52 0.52 0.50 0.46 0.41 0.39 0.41 0.45 0.48 0.41 0.34 0.32 0.31 0.32 0.33 0.34 0.33 0.34 0.33 0.33 0.35 0.32 0.28 0.29 0.31 0.31 0.32 0.33 0.33 0.34 0.35 0.34 0.33 0.33 0.33 0.30 0.26 0.25 0.28 0.26 0.24 0.25
1.17 1.17 1.18 1.20 1.20 1.19 1.17 1.14 1.10 1.09 1.08 1.07 1.06 1.07 1.07 1.06 1.03 1.03 0.99 0.97 0.95 0.95 0.95 0.95 0.94 0.94 0.94 0.93 0.92 0.87 0.84 0.82 0.80 0.79 0.77 0.75 0.74 0.71 0.66 0.59 0.56 0.55 0.54 0.53 0.54 0.51 0.48 0.44 0.43 0.45 0.49 0.47 0.37 0.31 0.29 0.31 0.32 0.34 0.33 0.31 0.30 0.27 0.26 0.26 0.24 0.22 0.27 0.29 0.30 0.31 0.33 0.33 0.34 0.35 0.35 0.34 0.35 0.35 0.31 0.26 0.29 0.30 0.27 0.28 0.27
1.16 1.17 1.20 1.23 1.23 1.22 1.19 1.16 1.12 1.10 1.09 1.10 1.10 1.09 1.07 1.06 1.06 1.05 1.03 1.02 1.00 1.00 0.99 0.97 0.96 0.97 0.98 0.96 0.94 0.91 0.88 0.85 0.83 0.80 0.79 0.78 0.77 0.74 0.68 0.60 0.56 0.56 0.55 0.54 0.54 0.51 0.48 0.46 0.46 0.49 0.51 0.45 0.37 0.30 0.28 0.30 0.31 0.33 0.31 0.29 0.27 0.25 0.25 0.23 0.19 0.23 0.27 0.28 0.29 0.31 0.33 0.34 0.36 0.36 0.35 0.35 0.37 0.37 0.35 0.33 0.34 0.32 0.30 0.30 0.32
1.20 1.23 1.24 1.24 1.24 1.23 1.21 1.16 1.13 1.12 1.12 1.13 1.13 1.13 1.13 1.10 1.07 1.05 1.06 1.05 1.04 1.03 1.02 1.00 1.00 1.02 1.03 1.01 0.99 0.98 0.93 0.85 0.90 0.87 0.84 0.83 0.81 0.75 0.69 0.60 0.56 0.58 0.57 0.55 0.50 0.49 0.46 0.45 0.47 0.50 0.49 0.45 0.37 0.30 0.27 0.27 0.30 0.32 0.30 0.26 0.25 0.23 0.23 0.19 0.22 0.26 0.27 0.28 0.29 0.31 0.33 0.35 0.37 0.36 0.36 0.33 0.36 0.37 0.37 0.37 0.36 0.36 0.34 0.34 0.34
1.22 1.23 1.24 1.22 1.20 1.20 1.19 1.16 1.15 1.16 1.18 1.18 1.20 1.18 1.16 1.12 1.10 1.08 1.07 1.08 1.06 1.05 1.05 1.06 1.06 1.06 1.06 1.05 1.03 1.03 0.98 0.91 0.87 0.81 0.78 0.78 0.79 0.76 0.68 0.61 0.57 0.58 0.55 0.52 0.50 0.46 0.43 0.44 0.47 0.48 0.48 0.45 0.39 0.31 0.26 0.26 0.27 0.29 0.28 0.25 0.24 0.22 0.20 0.20 0.25 0.27 0.27 0.29 0.30 0.32 0.33 0.35 0.35 0.35 0.34 0.33 0.34 0.36 0.37 0.39 0.39 0.38 0.37 0.35 0.35
1.21 1.22 1.21 1.19 1.18 1.17 1.18 1.18 1.20 1.21 1.21 1.19 1.17 1.17 1.20 1.19 1.16 1.15 1.13 1.11 1.08 1.07 1.06 1.06 1.05 1.03 1.04 1.03 1.02 1.00 0.98 0.88 0.83 0.79 0.74 0.72 0.73 0.71 0.65 0.61 0.59 0.55 0.47 0.47 0.47 0.44 0.43 0.43 0.43 0.45 0.44 0.43 0.37 0.30 0.26 0.25 0.26 0.28 0.27 0.26 0.25 0.23 0.20 0.23 0.26 0.27 0.28 0.30 0.31 0.32 0.33 0.34 0.33 0.34 0.34 0.33 0.34 0.36 0.36 0.38 0.39 0.38 0.39 0.40 0.38
1.20 1.20 1.19 1.18 1.17 1.17 1.18 1.18 1.18 1.19 1.18 1.19 1.19 1.17 1.16 1.15 1.15 1.14 1.12 1.10 1.07 1.04 1.02 1.02 1.01 1.00 1.01 1.01 1.02 0.99 0.97 0.89 0.82 0.78 0.74 0.71 0.69 0.67 0.64 0.60 0.58 0.57 0.52 0.47 0.45 0.42 0.41 0.44 0.44 0.41 0.41 0.40 0.35 0.28 0.25 0.25 0.25 0.26 0.26 0.26 0.25 0.23 0.22 0.24 0.27 0.27 0.29 0.31 0.32 0.32 0.33 0.34 0.33 0.33 0.34 0.33 0.35 0.36 0.37 0.37 0.38 0.37 0.37 0.40 0.41
1.19 1.18 1.16 1.16 1.16 1.16 1.18 1.18 1.19 1.19 1.19 1.17 1.16 1.15 1.15 1.14 1.12 1.10 1.08 1.05 1.02 1.00 0.99 1.00 1.00 0.98 0.96 0.95 0.96 0.96 0.94 0.89 0.81 0.74 0.71 0.68 0.67 0.64 0.62 0.59 0.56 0.54 0.53 0.49 0.46 0.44 0.44 0.44 0.44 0.40 0.38 0.36 0.31 0.26 0.25 0.25 0.24 0.25 0.25 0.25 0.24 0.23 0.22 0.24 0.26 0.28 0.29 0.31 0.32 0.33 0.32 0.34 0.35 0.34 0.34 0.35 0.35 0.37 0.37 0.37 0.36 0.36 0.37 0.38 0.40
1.15 1.12 1.12 1.14 1.15 1.18 1.18 1.18 1.19 1.19 1.18 1.16 1.12 1.11 1.11 1.11 1.06 1.07 1.07 1.05 1.03 1.01 0.99 0.99 0.97 0.96 0.94 0.93 0.93 0.93 0.91 0.86 0.79 0.72 0.68 0.66 0.64 0.62 0.60 0.59 0.57 0.55 0.54 0.51 0.47 0.46 0.46 0.45 0.44 0.44 0.41 0.37 0.30 0.26 0.25 0.24 0.24 0.24 0.24 0.24 0.24 0.23 0.22 0.23 0.26 0.28 0.28 0.29 0.31 0.33 0.33 0.35 0.35 0.35 0.36 0.36 0.38 0.38 0.37 0.35 0.35 0.36 0.37 0.38 0.40
1.14 1.12 1.12 1.12 1.14 1.16 1.14 1.15 1.17 1.18 1.17 1.16 1.15 1.14 1.12 1.11 1.09 1.09 1.08 1.06 1.04 1.01 1.01 0.98 0.96 0.95 0.92 0.91 0.91 0.91 0.89 0.83 0.75 0.70 0.66 0.64 0.63 0.61 0.59 0.60 0.57 0.54 0.53 0.50 0.46 0.47 0.48 0.47 0.44 0.44 0.43 0.36 0.32 0.31 0.30 0.27 0.24 0.24 0.24 0.24 0.24 0.24 0.24 0.25 0.27 0.28 0.30 0.31 0.32 0.32 0.34 0.35 0.36 0.36 0.37 0.37 0.37 0.36 0.35 0.34 0.34 0.34 0.35 0.37 0.38
1.12 1.12 1.12 1.13 1.13 1.13 1.12 1.12 1.13 1.15 1.15 1.14 1.13 1.12 1.11 1.10 1.11 1.10 1.11 1.07 1.04 1.01 0.98 0.95 0.93 0.91 0.90 0.90 0.90 0.90 0.87 0.81 0.74 0.70 0.65 0.62 0.61 0.59 0.58 0.58 0.57 0.53 0.50 0.49 0.48 0.47 0.47 0.46 0.44 0.42 0.41 0.38 0.34 0.33 0.32 0.30 0.28 0.27 0.27 0.27 0.27 0.26 0.28 0.29 0.29 0.30 0.31 0.32 0.34 0.36 0.37 0.37 0.37 0.37 0.35 0.35 0.35 0.36 0.36 0.35 0.35 0.35 0.37 0.39 0.39
1.07 1.08 1.10 1.11 1.11 1.12 1.11 1.10 1.09 1.08 1.09 1.08 1.06 1.04 1.05 1.06 1.04 1.02 1.02 1.02 0.99 0.97 0.95 0.93 0.91 0.89 0.87 0.87 0.86 0.85 0.83 0.79 0.72 0.68 0.65 0.62 0.60 0.60 0.56 0.55 0.54 0.51 0.48 0.51 0.53 0.51 0.48 0.45 0.43 0.45 0.46 0.41 0.37 0.37 0.36 0.33 0.29 0.26 0.26 0.27 0.27 0.28 0.29 0.33 0.34 0.34 0.33 0.34 0.35 0.37 0.39 0.38 0.36 0.36 0.35 0.35 0.36 0.36 0.38 0.37 0.37 0.37 0.39 0.40 0.38
1.06 1.05 1.06 1.07 1.07 1.10 1.10 1.09 1.07 1.05 1.04 1.05 1.05 1.04 1.01 1.01 1.02 1.03 1.05 1.05 1.02 0.98 0.94 0.91 0.90 0.90 0.88 0.85 0.82 0.79 0.77 0.74 0.71 0.70 0.66 0.62 0.58 0.53 0.51 0.51 0.52 0.51 0.52 0.54 0.56 0.54 0.52 0.48 0.46 0.48 0.49 0.44 0.39 0.38 0.38 0.36 0.30 0.26 0.24 0.25 0.26 0.30 0.33 0.34 0.34 0.34 0.34 0.35 0.35 0.35 0.37 0.38 0.37 0.37 0.37 0.36 0.37 0.38 0.40 0.39 0.40 0.39 0.40 0.41 0.39
1.02 1.01 1.02 1.02 1.04 1.06 1.07 1.06 1.05 1.05 1.03 1.00 0.98 0.97 0.99 1.00 1.01 0.99 0.99 1.02 1.03 1.02 0.97 0.91 0.90 0.88 0.85 0.84 0.82 0.76 0.73 0.73 0.75 0.73 0.67 0.62 0.58 0.53 0.50 0.51 0.53 0.53 0.55 0.56 0.56 0.51 0.49 0.48 0.47 0.48 0.48 0.43 0.40 0.38 0.36 0.33 0.28 0.25 0.24 0.25 0.30 0.34 0.37 0.38 0.38 0.37 0.37 0.36 0.36 0.36 0.37 0.37 0.37 0.37 0.38 0.38 0.39 0.40 0.41 0.41 0.40 0.42 0.41 0.40 0.39
0.97 0.98 0.98 0.98 1.00 1.02 1.02 1.01 1.01 1.01 1.00 0.97 0.95 0.91 0.90 0.94 0.99 1.01 1.01 0.99 0.97 0.96 0.94 0.93 0.91 0.88 0.84 0.80 0.80 0.79 0.77 0.77 0.78 0.76 0.72 0.66 0.63 0.59 0.56 0.54 0.55 0.55 0.57 0.57 0.55 0.51 0.48 0.47 0.47 0.49 0.49 0.44 0.39 0.36 0.32 0.27 0.25 0.25 0.25 0.30 0.37 0.39 0.39 0.39 0.39 0.39 0.38 0.37 0.37 0.37 0.37 0.37 0.38 0.40 0.40 0.40 0.40 0.40 0.41 0.42 0.43 0.44 0.43 0.42 0.40
0.93 0.94 0.95 0.97 0.98 0.99 1.00 0.99 0.99 0.96 0.93 0.92 0.90 0.89 0.89 0.90 0.93 0.96 0.96 0.96 0.95 0.92 0.90 0.89 0.87 0.86 0.84 0.81 0.78 0.77 0.78 0.79 0.79 0.78 0.76 0.74 0.69 0.64 0.58 0.53 0.53 0.54 0.55 0.55 0.50 0.48 0.46 0.44 0.45 0.47 0.47 0.43 0.38 0.34 0.34 0.33 0.32 0.33 0.35 0.37 0.39 0.40 0.39 0.38 0.40 0.40 0.40 0.38 0.37 0.37 0.39 0.41 0.42 0.42 0.42 0.42 0.41 0.41 0.40 0.41 0.42 0.42 0.42 0.42 0.42
0.92 0.92 0.93 0.94 0.95 0.96 0.96 0.95 0.95 0.93 0.88 0.87 0.87 0.88 0.88 0.88 0.86 0.84 0.88 0.91 0.90 0.89 0.88 0.87 0.86 0.86 0.84 0.83 0.81 0.79 0.79 0.81 0.81 0.81 0.81 0.80 0.80 0.77 0.71 0.66 0.59 0.56 0.56 0.54 0.50 0.47 0.43 0.40 0.40 0.45 0.47 0.42 0.38 0.36 0.35 0.36 0.37 0.38 0.39 0.39 0.40 0.41 0.42 0.41 0.41 0.41 0.40 0.39 0.38 0.39 0.40 0.43 0.44 0.45 0.44 0.43 0.42 0.40 0.40 0.41 0.42 0.42 0.42 0.41 0.41
0.94 0.93 0.92 0.92 0.91 0.91 0.91 0.91 0.91 0.90 0.89 0.88 0.88 0.88 0.89 0.90 0.86 0.84 0.83 0.83 0.83 0.85 0.86 0.87 0.87 0.87 0.86 0.85 0.83 0.82 0.81 0.80 0.80 0.81 0.80 0.80 0.80 0.77 0.73 0.69 0.64 0.60 0.57 0.53 0.51 0.46 0.44 0.43 0.43 0.46 0.46 0.42 0.41 0.39 0.38 0.38 0.39 0.40 0.40 0.41 0.42 0.42 0.43 0.44 0.43 0.41 0.40 0.39 0.39 0.40 0.42 0.44 0.46 0.45 0.44 0.43 0.43 0.42 0.41 0.42 0.42 0.41 0.40 0.40 0.39
0.95 0.94 0.92 0.91 0.90 0.91 0.92 0.93 0.92 0.92 0.91 0.89 0.88 0.88 0.88 0.88 0.86 0.84 0.84 0.84 0.82 0.80 0.81 0.84 0.87 0.87 0.86 0.85 0.85 0.85 0.85 0.83 0.81 0.79 0.78 0.78 0.78 0.77 0.76 0.72 0.68 0.66 0.65 0.63 0.60 0.56 0.51 0.49 0.48 0.47 0.44 0.42 0.41 0.39 0.38 0.38 0.40 0.41 0.41 0.41 0.42 0.43 0.44 0.44 0.43 0.42 0.42 0.41 0.41 0.42 0.44 0.45 0.45 0.44 0.44 0.43 0.43 0.42 0.42 0.41 0.42 0.41 0.41 0.40 0.41
0.96 0.95 0.94 0.93 0.93 0.93 0.94 0.95 0.96 0.95 0.93 0.92 0.92 0.91 0.90 0.87 0.85 0.84 0.85 0.85 0.85 0.84 0.84 0.85 0.85 0.87 0.87 0.86 0.86 0.85 0.83 0.81 0.80 0.81 0.81 0.81 0.80 0.79 0.74 0.71 0.69 0.68 0.66 0.66 0.65 0.62 0.58 0.54 0.50 0.46 0.44 0.43 0.41 0.38 0.37 0.38 0.40 0.41 0.42 0.43 0.43 0.44 0.45 0.45 0.45 0.44 0.43 0.43 0.43 0.44 0.44 0.45 0.45 0.45 0.45 0.44 0.44 0.42 0.42 0.42 0.42 0.42 0.42 0.41 0.42
0.97 0.96 0.95 0.96 0.97 0.97 0.97 0.97 0.97 0.96 0.95 0.94 0.92 0.91 0.89 0.88 0.87 0.86 0.85 0.85 0.84 0.84 0.84 0.85 0.85 0.84 0.85 0.85 0.85 0.84 0.83 0.80 0.79 0.79 0.79 0.79 0.79 0.78 0.74 0.72 0.69 0.67 0.65 0.63 0.62 0.61 0.58 0.55 0.51 0.46 0.42 0.39 0.37 0.34 0.34 0.38 0.40 0.41 0.42 0.43 0.43 0.43 0.44 0.45 0.45 0.44 0.44 0.43 0.44 0.45 0.45 0.46 0.46 0.45 0.44 0.41 0.40 0.41 0.43 0.44 0.44 0.43 0.42 0.42 0.41
1.00 0.98 0.97 0.97 0.96 0.96 0.98 0.98 0.99 0.99 0.98 0.96 0.94 0.90 0.88 0.87 0.88 0.87 0.87 0.86 0.88 0.87 0.85 0.84 0.82 0.80 0.78 0.79 0.82 0.80 0.79 0.79 0.79 0.79 0.79 0.78 0.75 0.73 0.72 0.70 0.67 0.61 0.57 0.56 0.55 0.55 0.53 0.51 0.47 0.43 0.39 0.37 0.33 0.32 0.35 0.39 0.41 0.41 0.41 0.42 0.44 0.45 0.45 0.45 0.45 0.45 0.44 0.43 0.43 0.43 0.43 0.43 0.43 0.43 0.43 0.42 0.43 0.43 0.44 0.44 0.44 0.42 0.42 0.42 0.41
1.00 0.99 0.99 1.00 1.01 1.01 1.00 0.99 0.99 0.98 0.96 0.95 0.92 0.89 0.86 0.85 0.86 0.87 0.91 0.90 0.90 0.88 0.87 0.85 0.81 0.78 0.76 0.77 0.76 0.77 0.75 0.75 0.75 0.74 0.73 0.73 0.73 0.72 0.70 0.66 0.61 0.57 0.56 0.56 0.55 0.53 0.50 0.46 0.43 0.41 0.36 0.33 0.30 0.30 0.34 0.39 0.40 0.42 0.44 0.44 0.45 0.46 0.46 0.46 0.45 0.45 0.45 0.45 0.45 0.46 0.46 0.45 0.45 0.46 0.46 0.45 0.44 0.45 0.44 0.44 0.44 0.43 0.42 0.41 0.42
0.97 0.96 0.96 0.97 0.97 0.96 0.96 0.95 0.96 0.96 0.95 0.93 0.91 0.89 0.87 0.86 0.87 0.89 0.86 0.84 0.83 0.81 0.78 0.77 0.76 0.75 0.75 0.74 0.73 0.73 0.71 0.71 0.73 0.74 0.73 0.71 0.70 0.68 0.66 0.61 0.57 0.54 0.52 0.50 0.48 0.46 0.43 0.41 0.37 0.33 0.32 0.31 0.30 0.30 0.33 0.38 0.43 0.46 0.46 0.45 0.44 0.44 0.45 0.45 0.44 0.44 0.43 0.44 0.44 0.44 0.44 0.44 0.44 0.44 0.44 0.44 0.45 0.46 0.45 0.45 0.45 0.44 0.43 0.43 0.43
0.97 0.96 0.96 0.96 0.96 0.94 0.92 0.92 0.92 0.93 0.94 0.93 0.93 0.91 0.89 0.88 0.86 0.84 0.82 0.80 0.78 0.76 0.75 0.75 0.75 0.75 0.75 0.74 0.73 0.72 0.69 0.69 0.70 0.71 0.71 0.69 0.67 0.64 0.61 0.56 0.52 0.48 0.46 0.43 0.41 0.39 0.36 0.35 0.37 0.39 0.40 0.41 0.43 0.43 0.44 0.45 0.46 0.45 0.44 0.43 0.43 0.43 0.44 0.44 0.44 0.44 0.43 0.42 0.42 0.43 0.43 0.44 0.44 0.44 0.44 0.45 0.46 0.46 0.45 0.45 0.44 0.44 0.44 0.45 0.45
0.96 0.94 0.93 0.94 0.95 0.94 0.93 0.94 0.95 0.96 0.96 0.95 0.94 0.92 0.89 0.87 0.85 0.84 0.82 0.79 0.75 0.73 0.72 0.74 0.76 0.77 0.77 0.76 0.74 0.71 0.69 0.69 0.70 0.69 0.67 0.65 0.60 0.55 0.52 0.49 0.46 0.42 0.39 0.37 0.37 0.37 0.39 0.41 0.42 0.43 0.43 0.43 0.43 0.43 0.43 0.43 0.43 0.42 0.43 0.43 0.44 0.44 0.44 0.44 0.44 0.43 0.42 0.43 0.44 0.44 0.45 0.46 0.46 0.47 0.46 0.46 0.45 0.45 0.44 0.44 0.44 0.44 0.45 0.45 0.46
0.95 0.94 0.94 0.94 0.93 0.94 0.93 0.94 0.95 0.94 0.93 0.92 0.91 0.89 0.88 0.86 0.84 0.81 0.78 0.76 0.74 0.74 0.74 0.75 0.77 0.78 0.77 0.75 0.72 0.69 0.68 0.67 0.65 0.63 0.60 0.56 0.52 0.49 0.47 0.45 0.41 0.39 0.38 0.38 0.41 0.42 0.43 0.43 0.44 0.45 0.46 0.44 0.43 0.44 0.44 0.44 0.44 0.44 0.44 0.44 0.44 0.43 0.42 0.41 0.41 0.43 0.44 0.45 0.46 0.47 0.47 0.47 0.47 0.47 0.46 0.46 0.46 0.45 0.45 0.45 0.46 0.46 0.47 0.46 0.46
0.91 0.91 0.90 0.89 0.90 0.90 0.91 0.90 0.88 0.88 0.88 0.89 0.88 0.87 0.85 0.84 0.83 0.80 0.76 0.74 0.74 0.75 0.76 0.76 0.76 0.75 0.74 0.72 0.69 0.67 0.65 0.64 0.63 0.60 0.57 0.53 0.51 0.49 0.48 0.47 0.47 0.47 0.48 0.50 0.51 0.50 0.49 0.47 0.45 0.46 0.45 0.44 0.45 0.45 0.44 0.44 0.45 0.44 0.44 0.42 0.41 0.40 0.42 0.44 0.45 0.47 0.48 0.48 0.48 0.48 0.48 0.49 0.49 0.48 0.47 0.47 0.47 0.46 0.46 0.47 0.47 0.46 0.45 0.45 0.44
0.88 0.87 0.86 0.85 0.85 0.85 0.85 0.86 0.85 0.83 0.82 0.81 0.80 0.80 0.80 0.80 0.79 0.77 0.75 0.74 0.75 0.75 0.76 0.76 0.76 0.75 0.72 0.69 0.68 0.66 0.64 0.62 0.58 0.55 0.53 0.51 0.49 0.48 0.47 0.49 0.53 0.57 0.58 0.58 0.58 0.57 0.55 0.53 0.50 0.45 0.42 0.42 0.42 0.42 0.42 0.43 0.43 0.43 0.42 0.42 0.43 0.45 0.47 0.48 0.49 0.50 0.51 0.50 0.50 0.49 0.49 0.48 0.47 0.47 0.47 0.48 0.48 0.47 0.46 0.46 0.45 0.44 0.43 0.40 0.37
0.86 0.85 0.84 0.84 0.84 0.84 0.84 0.84 0.85 0.85 0.84 0.82 0.81 0.81 0.82 0.82 0.81 0.79 0.79 0.78 0.77 0.76 0.75 0.75 0.74 0.72 0.69 0.67 0.67 0.65 0.62 0.60 0.56 0.53 0.51 0.49 0.47 0.46 0.48 0.53 0.57 0.58 0.57 0.56 0.54 0.51 0.48 0.46 0.44 0.41 0.39 0.38 0.38 0.39 0.40 0.40 0.41 0.44 0.47 0.49 0.50 0.51 0.51 0.51 0.52 0.52 0.52 0.51 0.50 0.49 0.48 0.47 0.47 0.47 0.47 0.46 0.46 0.45 0.44 0.43 0.42 0.39 0.36 0.33 0.30
0.85 0.85 0.84 0.84 0.82 0.83 0.83 0.82 0.83 0.84 0.83 0.82 0.81 0.81 0.81 0.81 0.81 0.82 0.82 0.80 0.79 0.77 0.75 0.74 0.72 0.69 0.68 0.68 0.66 0.62 0.59 0.56 0.54 0.52 0.51 0.50 0.49 0.51 0.55 0.58 0.59 0.57 0.56 0.54 0.51 0.47 0.43 0.41 0.40 0.39 0.39 0.39 0.39 0.40 0.43 0.45 0.48 0.49 0.51 0.51 0.51 0.51 0.51 0.52 0.52 0.52 0.51 0.51 0.50 0.48 0.47 0.47 0.46 0.45 0.45 0.45 0.44 0.44 0.42 0.40 0.37 0.33 0.29 0.27 0.25
0.82 0.82 0.82 0.82 0.82 0.82 0.82 0.82 0.81 0.81 0.80 0.80 0.78 0.78 0.78 0.79 0.80 0.81 0.79 0.78 0.76 0.74 0.73 0.72 0.71 0.71 0.69 0.67 0.63 0.58 0.54 0.51 0.54 0.57 0.55 0.53 0.54 0.57 0.58 0.58 0.56 0.55 0.54 0.50 0.45 0.42 0.40 0.39 0.40 0.41 0.42 0.43 0.45 0.47 0.48 0.49 0.50 0.50 0.49 0.50 0.51 0.51 0.51 0.51 0.51 0.51 0.51 0.50 0.49 0.47 0.46 0.45 0.45 0.45 0.45 0.44 0.42 0.39 0.34 0.30 0.27 0.25 0.24 0.24 0.25
0.78 0.78 0.77 0.77 0.77 0.78 0.78 0.78 0.78 0.78 0.78 0.78 0.77 0.76 0.78 0.78 0.77 0.75 0.75 0.75 0.74 0.73 0.72 0.71 0.70 0.70 0.69 0.66 0.62 0.58 0.53 0.51 0.54 0.52 0.49 0.49 0.51 0.54 0.55 0.54 0.53 0.51 0.48 0.44 0.41 0.40 0.41 0.42 0.43 0.45 0.47 0.47 0.47 0.48 0.49 0.48 0.48 0.48 0.49 0.50 0.50 0.50 0.50 0.49 0.48 0.48 0.48 0.48 0.47 0.46 0.45 0.46 0.45 0.43 0.41 0.37 0.33 0.29 0.26 0.25 0.24 0.24 0.25 0.26 0.25
0.76 0.76 0.76 0.76 0.76 0.76 0.77 0.77 0.77 0.77 0.77 0.76 0.76 0.76 0.76 0.76 0.76 0.77 0.77 0.76 0.74 0.72 0.72 0.70 0.69 0.68 0.66 0.62 0.57 0.53 0.48 0.46 0.46 0.45 0.46 0.49 0.53 0.54 0.53 0.52 0.51 0.48 0.44 0.41 0.40 0.41 0.43 0.44 0.44 0.45 0.46 0.47 0.48 0.48 0.48 0.48 0.48 0.48 0.48 0.48 0.48 0.47 0.46 0.45 0.45 0.45 0.45 0.46 0.46 0.45 0.44 0.41 0.39 0.35 0.32 0.28 0.25 0.25 0.25 0.26 0.26 0.25 0.24 0.21 0.18
0.75 0.76 0.76 0.77 0.77 0.77 0.77 0.77 0.77 0.77 0.78 0.77 0.77 0.76 0.76 0.76 0.76 0.76 0.75 0.72 0.70 0.69 0.67 0.65 0.63 0.62 0.61 0.57 0.54 0.51 0.50 0.49 0.49 0.50 0.52 0.53 0.53 0.52 0.51 0.48 0.44 0.41 0.40 0.40 0.41 0.42 0.42 0.43 0.44 0.45 0.46 0.47 0.47 0.47 0.47 0.47 0.47 0.47 0.46 0.45 0.44 0.43 0.43 0.43 0.43 0.44 0.46 0.46 0.44 0.41 0.39 0.35 0.30 0.27 0.26 0.25 0.26 0.27 0.27 0.26 0.24 0.20 0.17 0.14 0.12
Wind_Speed
17 17 16 15 15 14 14 14 13 12 12 12 11 11 11 11 10 10 10 9 9 9 9 9 10 10 11 11 11 11 11 11 11 11 10 10 10 9 8 7 7 7 6 6 6 6 6 6 6 7 7 8 9 9 9 9 10 10 11 11 12 12 12 12 13 14 14 15 16 17 18 19 20 20 21 21 23 23 24 24 25 27 27 29 30
17 16 16 15 15 14 14 13 12 12 12 11 11 11 11 11 10 10 9 9 9 9 9 9 10 11 11 11 10 10 11 11 11 11 10 10 9 9 8 7 7 7 7 7 7 7 7 7 7 7 8 9 9 9 9 9 10 10 11 12 12 12 12 13 13 13 15 16 16 17 18 18 19 20 21 21 22 23 23 24 25 26 27 29 30
17 16 16 15 15 14 13 13 12 12 12 11 11 11 11 11 10 9 9 9 9 8 9 10 11 11 11 11 11 11 11 11 10 10 10 9 9 8 8 8 7 7 7 7 7 7 7 8 8 8 9 9 10 10 10 10 10 11 12 12 12 13 13 13 13 14 15 16 17 17 18 18 19 19 20 21 22 22 22 23 24 26 27 29 30
16 16 16 15 15 14 13 13 12 12 12 11 11 11 11 11 10 9 9 8 8 8 9 10 10 11 11 11 11 11 11 10 10 10 10 9 9 8 8 8 8 8 8 8 8 8 8 8 8 9 9 10 10 10 10 10 11 11 12 12 13 13 13 13 13 14 15 15 16 17 17 18 18 19 20 21 22 22 22 23 24 25 27 29 30
16 16 16 15 14 14 13 13 13 13 12 11 11 11 11 11 10 10 9 9 8 8 9 9 10 10 11 11 11 11 10 10 11 10 10 9 9 9 9 8 8 8 9 9 9 9 9 9 9 10 10 10 10 10 10 10 11 12 12 13 13 13 13 13 13 13 14 15 16 17 17 17 18 18 19 20 21 22 22 22 23 25 26 28 29
16 16 15 15 14 14 13 13 13 13 12 12 12 12 11 11 10 10 9 9 9 9 9 9 9 10 10 10 10 10 11 11 11 10 10 10 10 9 9 9 9 9 9 10 10 10 10 10 10 11 11 10 10 10 10 11 11 12 12 12 13 13 13 13 13 13 13 14 15 16 17 17 18 18 19 20 20 21 22 23 23 24 26 28 29
16 16 15 15 14 14 13 13 13 13 12 12 12 12 11 11 10 9 9 9 10 9 9 9 10 10 10 10 10 10 10 11 11 10 10 10 10 10 10 10 10 10 10 10 11 11 11 11 11 11 11 10 10 10 11 11 11 11 12 12 12 12 13 13 13 13 13 14 15 16 17 17 18 18 18 19 20 21 22 23 24 25 26 27 28
16 16 16 15 14 14 13 13 13 13 12 12 12 12 12 11 10 10 10 10 10 9 9 10 10 10 10 10 10 10 10 11 11 11 11 11 10 10 10 10 10 11 11 11 12 12 12 12 12 12 11 10 10 11 11 11 11 11 12 11 11 12 13 13 13 13 14 14 15 16 17 18 18 18 18 19 20 21 22 23 24 25 26 27 28
16 16 16 15 14 14 13 13 13 13 13 13 13 12 12 11 11 11 11 10 9 9 10 10 10 10 10 10 10 10 11 11 11 11 11 11 11 11 11 11 11 12 12 12 12 12 13 13 12 11 11 11 11 12 12 11 11 11 11 11 11 12 12 13 13 13 14 14 15 16 17 17 18 18 19 19 20 21 22 23 24 25 26 27 28
17 16 16 15 15 14 14 14 13 13 13 13 13 13 12 11 11 11 11 10 10 9 10 10 10 10 11 11 11 11 11 11 12 12 12 12 12 12 12 12 12 12 13 13 13 13 13 13 12 12 11 12 12 12 12 11 11 10 10 10 11 12 12 13 13 14 14 15 15 16 17 17 18 18 19 20 21 21 22 23 24 25 26 26 27
17 16 16 15 15 15 14 14 14 13 13 14 14 13 13 12 12 12 12 11 10 10 10 10 11 11 11 11 12 12 12 12 12 12 13 13 13 13 13 13 13 14 14 14 14 14 13 13 13 13 13 12 12 12 13 12 11 10 11 11 12 12 13 13 14 14 14 15 15 16 17 17 18 19 19 20 21 22 23 23 24 25 26 26 27
17 17 16 16 15 15 15 14 14 13 14 14 14 14 13 13 13 13 12 11 11 10 10 11 11 12 12 12 12 12 13 13 13 14 14 14 14 15 15 15 15 15 15 15 15 14 13 13 14 14 14 13 13 13 14 13 12 11 12 12 13 13 14 14 14 14 14 15 16 17 17 18 19 19 20 20 21 22 23 23 24 25 26 26 27
18 17 16 16 16 16 15 15 14 14 14 14 14 14 14 14 14 13 13 12 12 11 11 12 12 13 13 13 13 14 14 14 14 15 15 15 15 16 16 16 16 16 16 16 15 14 14 14 14 15 15 14 13 14 15 13 13 13 13 14 14 15 15 15 15 15 15 15 16 17 18 19 20 20 20 20 21 22 23 24 25 25 25 26 27
18 17 17 17 16 16 16 15 15 14 15 15 14 14 14 14 14 14 14 13 13 12 12 12 13 14 14 15 15 15 16 16 16 16 16 17 17 17 17 17 17 16 16 16 16 15 15 15 15 15 15 14 14 15 15 14 13 14 15 15 15 16 16 17 17 17 16 16 16 17 18 19 20 20 21 21 21 22 23 24 24 25 25 26 26
19 18 18 17 17 16 16 16 15 15 15 15 14 14 14 14 14 14 14 14 14 14 14 14 14 15 15 16 16 17 17 17 17 17 17 17 17 17 17 17 17 17 17 17 17 16 16 16 16 15 15 15 15 15 15 14 14 15 15 16 16 16 16 17 17 17 17 17 17 18 19 20 21 21 21 21 22 22 22 23 23 24 24 25 25
19 19 18 18 17 17 17 16 16 15 16 15 15 14 14 14 15 15 15 15 15 15 15 15 16 16 17 17 17 18 18 19 18 18 18 18 17 17 17 17 17 17 18 18 18 17 17 17 16 16 16 15 15 15 15 15 15 15 16 16 16 16 16 17 18 18 18 18 18 18 19 21 21 21 21 22 22 22 22 22 22 23 24 25 26
19 19 18 18 17 17 17 17 16 16 17 16 15 15 15 15 15 15 15 15 16 16 16 17 17 18 18 18 19 19 20 20 20 19 19 18 18 18 17 18 18 18 19 19 18 18 18 17 17 17 17 16 16 16 16 15 15 16 16 16 16 16 16 17 18 19 18 18 18 19 20 21 22 22 22 22 22 21 22 22 22 23 24 25 25
19 18 18 18 17 17 18 18 17 17 17 17 17 16 16 15 16 16 16 16 16 16 17 17 18 19 19 20 20 20 21 21 21 20 20 19 19 18 18 19 19 19 19 19 19 18 18 17 18 18 17 17 17 17 16 16 16 16 17 17 16 16 17 18 19 19 18 18 19 20 20 21 21 21 21 22 22 21 21 22 23 23 24 25 25
18 18 17 17 17 18 18 18 18 18 18 18 18 17 17 17 17 17 17 16 16 16 17 17 18 19 19 20 20 21 21 22 22 22 21 20 20 20 20 19 19 19 19 19 19 19 18 18 18 18 18 17 17 17 17 17 17 17 17 17 17 18 18 19 19 18 18 18 19 19 20 21 21 20 21 22 22 22 21 22 23 24 25 25 26
17 17 17 17 17 18 18 18 18 18 19 19 18 18 17 17 17 18 17 17 17 16 16 17 17 18 19 20 20 20 21 21 22 22 21 20 21 21 21 20 20 20 20 20 20 19 19 19 19 19 18 18 18 18 17 17 18 18 18 18 18 19 19 19 19 19 19 19 19 19 20 21 21 21 22 23 23 23 23 23 24 24 25 26 27
17 17 17 17 17 17 18 18 18 19 19 19 18 18 18 18 18 18 18 17 16 16 16 16 17 18 19 20 20 21 21 20 20 21 21 21 21 21 21 21 21 21 21 21 21 20 20 20 20 20 19 19 18 18 18 18 19 19 19 19 19 19 20 19 19 19 19 19 20 20 21 21 21 21 23 23 23 24 24 24 24 25 25 26 26
18 18 18 18 17 17 17 18 18 18 18 18 19 19 18 18 19 18 17 16 16 16 16 17 17 18 18 19 20 20 20 20 20 21 21 21 21 21 21 21 21 21 21 21 21 21 21 21 21 21 20 20 19 19 19 19 20 20 20 20 20 20 20 20 20 20 20 20 21 21 21 21 22 23 23 23 24 24 25 25 25 25 26 25 26
18 18 18 18 17 17 17 17 17 17 18 18 18 19 18 18 17 17 17 16 17 17 17 17 18 18 18 18 19 20 20 20 20 20 20 21 21 21 21 21 21 21 22 22 22 22 22 21 21 22 22 21 21 20 20 20 20 21 21 21 21 21 21 21 21 21 21 21 22 22 22 22 22 23 24 24 25 25 25 25 26 26 26 26 26
18 18 18 17 17 17 17 17 17 17 17 17 17 18 18 18 17 17 17 17 18 18 18 18 18 18 18 19 19 20 20 20 20 20 21 21 21 22 21 21 21 22 22 22 22 22 22 22 22 22 22 22 21 21 21 21 22 22 22 22 22 22 22 22 22 22 22 22 23 23 23 23 23 24 24 25 25 25 25 26 26 26 26 26 27
17 17 17 17 17 17 17 17 17 17 17 17 17 17 18 18 18 18 18 18 18 18 18 19 19 19 19 20 19 20 20 20 21 21 21 22 22 22 22 21 22 22 22 22 22 22 22 23 22 22 22 22 21 22 22 22 23 23 23 23 23 23 23 23 23 23 23 23 24 24 24 23 24 25 25 25 25 25 26 26 27 26 26 27 28
17 17 17 17 17 17 17 16 17 17 17 17 17 18 18 19 19 19 19 18 19 19 19 20 20 20 20 20 20 20 20 21 21 21 22 22 22 22 22 22 22 22 22 22 21 21 22 22 22 22 22 22 22 22 22 23 23 24 24 24 24 23 23 24 24 24 24 24 25 25 25 25 25 26 26 26 26 26 27 27 26 26 26 27 29
17 17 17 17 17 17 17 16 16 16 17 17 17 17 18 19 19 19 19 19 19 20 20 20 20 20 20 21 21 21 21 21 22 22 22 22 22 23 23 23 23 22 22 22 21 21 21 21 22 22 22 22 22 23 23 23 24 24 24 24 24 24 24 25 25 25 25 25 26 26 25 25 26 26 26 26 27 28 28 27 27 28 28 28 30
16 16 16 17 17 18 17 17 16 16 16 17 17 18 19 19 19 20 20 20 20 20 20 21 21 21 21 21 22 22 22 22 22 22 23 23 23 23 24 24 23 23 22 22 22 22 22 22 22 22 22 22 23 24 24 24 25 25 25 25 25 25 25 26 26 26 26 27 27 27 26 26 27 27 27 27 28 28 28 28 29 29 29 29 30
16 16 16 17 17 18 18 18 17 17 17 17 18 18 19 20 20 20 20 21 21 20 20 21 21 22 22 22 22 22 22 22 23 23 23 24 24 24 24 24 23 23 23 23 23 23 23 23 23 23 24 24 24 25 26 26 26 27 26 26 26 26 26 27 27 27 28 28 28 27 27 27 28 28 28 28 28 28 28 29 30 30 30 30 31
16 16 16 17 17 18 18 18 18 17 17 17 17 18 19 19 20 20 20 20 20 20 21 21 21 22 22 22 23 23 23 23 23 23 23 24 25 25 24 24 24 24 24 24 24 24 24 24 25 25 25 25 26 26 27 27 28 27 27 27 27 27 27 27 28 28 28 28 27 27 27 28 29 28 28 28 28 28 30 31 31 31 31 32 32
16 17 17 17 18 19 19 18 18 18 17 17 18 18 18 19 19 20 20 20 20 20 21 21 21 21 21 21 22 22 22 22 22 22 22 23 24 24 24 24 24 25 25 24 25 25 25 26 26 26 26 26 27 27 28 28 28 28 27 27 27 27 28 28 29 29 29 28 27 27 28 28 28 28 28 29 30 30 31 32 32 32 32 32 33
16 17 17 17 18 19 19 19 18 18 18 18 18 18 18 18 19 19 19 19 19 19 20 20 21 21 21 21 21 21 22 21 21 22 22 22 22 23 24 25 25 25 26 26 26 26 27 27 28 27 27 27 28 28 28 28 28 28 28 29 29 29 29 29 29 29 29 28 28 28 28 28 29 29 30 30 31 32 32 32 32 33 33 33 33
17 18 18 18 18 19 19 19 18 18 18 18 18 18 18 18 18 18 18 18 18 19 19 19 20 20 21 21 20 20 21 21 21 21 21 21 21 21 23 24 25 26 26 27 27 28 28 28 29 28 28 28 28 28 28 28 29 30 30 30 30 30 30 30 30 29 29 29 29 29 30 30 30 31 31 32 32 32 32 33 33 33 33 33 33
18 18 18 18 18 19 19 19 19 19 19 19 19 18 18 19 18 18 18 18 18 18 19 19 20 20 20 21 20 20 20 20 21 21 21 21 20 21 22 22 23 25 26 27 27 28 27 28 28 28 28 27 28 28 28 29 30 30 31 31 31 30 30 30 30 29 29 29 30 30 31 31 31 31 32 32 32 32 32 33 33 33 33 34 33
17 18 19 19 18 19 19 19 19 20 20 20 20 19 19 19 18 18 19 19 19 19 20 20 20 21 21 21 21 20 20 21 21 22 21 21 21 20 20 21 21 23 24 25 26 27 27 28 28 27 27 27 28 28 28 29 29 29 29 29 29 29 29 29 29 29 29 30 30 30 30 30 30 30 31 32 32 32 32 33 33 33 33 33 33
17 18 18 18 19 19 19 20 20 20 20 20 20 20 20 19 19 19 19 20 20 20 20 21 21 21 21 21 21 21 21 22 22 22 22 21 21 20 20 21 22 22 24 25 25 26 26 27 27 26 27 28 28 28 28 28 28 28 28 28 28 28 28 29 29 29 29 29 29 29 29 30 30 31 31 32 32 32 32 33 33 33 33 33 33
18 18 18 18 19 19 20 20 20 21 21 21 21 21 20 20 20 20 20 20 21 21 21 21 21 21 21 21 22 22 22 22 21 21 21 21 21 21 22 22 23 23 24 24 24 24 25 25 25 26 26 27 28 28 28 28 28 28 28 28 28 28 28 28 28 28 28 29 29 29 30 30 31 32 32 32 32 32 32 32 32 32 33 33 33
19 19 19 19 20 20 20 20 21 21 21 22 22 22 21 21 20 20 21 21 21 20 20 20 21 21 22 22 22 22 21 21 20 20 20 21 21 22 22 22 23 23 23 23 23 23 23 24 24 25 26 26 27 27 27 27 27 28 28 27 27 27 27 27 27 27 28 29 29 30 31 31 32 32 32 32 32 32 31 32 32 32 32 32 32
20 20 19 20 20 20 20 21 21 21 22 22 22 22 21 21 21 20 21 21 20 20 20 21 21 22 22 22 22 22 21 21 21 21 22 22 22 22 22 23 23 23 23 23 23 23 23 24 24 25 25 26 26 26 27 27 27 27 27 26 26 26 26 26 26 27 27 28 29 30 31 31 31 31 30 30 31 31 31 31 31 31 32 32 32
20 20 20 20 20 21 21 21 21 21 22 22 22 22 21 21 21 21 21 21 21 21 21 22 22 22 22 22 23 22 22 22 22 22 23 23 22 23 23 24 24 24 24 23 23 23 23 23 23 23 24 24 25 25 26 27 27 26 26 25 25 26 26 26 26 27 28 29 29 30 30 31 30 30 30 30 30 30 30 30 31 31 31 32 32
20 20 20 20 20 20 20 20 20 21 21 22 22 22 21 21 21 21 21 22 22 22 22 22 21 21 22 23 23 23 23 23 23 23 23 23 23 23 24 24 24 24 23 23 22 22 22 22 22 22 23 24 24 25 25 25 25 25 25 25 25 25 26 26 27 28 29 29 30 30 30 30 30 29 29 30 30 30 30 30 31 31 31 32 32
19 20 20 20 20 20 20 20 20 20 20 21 21 21 21 21 21 21 22 22 22 21 21 21 21 22 22 23 22 22 22 22 22 22 22 23 23 23 23 23 23 23 22 22 22 21 21 22 22 23 23 24 24 24 24 24 24 24 24 24 25 26 26 27 28 28 29 29 29 29 29 29 29 29 29 29 29 30 30 31 31 31 31 31 32
19 19 19 19 19 19 19 20 20 20 21 20 20 21 21 21 21 21 21 21 21 20 20 21 22 22 22 22 21 21 21 21 21 21 22 22 23 23 23 22 22 22 21 21 21 22 22 22 23 24 24 24 24 23 23 23 23 24 24 25 25 26 27 27 28 28 28 28 28 28 28 28 28 28 29 29 29 30 30 30 30 30 31 31 31
18 19 19 19 19 19 19 19 20 20 20 20 20 20 21 21 21 20 20 20 20 20 20 21 22 22 22 21 21 21 20 20 20 20 21 21 22 22 21 21 21 21 21 21 22 22 23 23 24 24 24 24 23 22 22 22 23 23 24 25 25 26 27 27 27 27 27 26 27 27 27 28 28 28 28 28 28 29 29 29 30 30 30 31 32
19 19 19 19 19 19 19 19 20 20 20 20 20 20 20 20 20 19 19 20 20 20 21 21 21 21 21 21 21 20 20 20 20 20 21 21 21 21 20 20 20 20 21 22 22 23 23 23 23 23 23 22 22 22 22 22 23 23 24 25 25 26 26 26 26 25 25 26 26 27 27 27 27 27 27 27 28 28 28 29 29 30 31 32 32
19 19 19 19 19 19 19 19 19 20 20 19 19 20 20 20 20 20 20 20 20 20 20 20 21 21 20 20 20 20 20 19 19 20 20 20 20 20 20 20 20 21 21 22 22 22 22 22 22 22 22 22 21 21 22 22 23 23 23 24 24 24 24 24 24 24 25 25 25 25 25 26 26 26 26 27 27 27 28 29 30 30 31 32 32
19 19 19 19 19 20 20 20 19 19 19 20 20 20 20 20 20 20 20 20 19 19 19 20 20 20 20 19 19 19 19 19 19 19 19 19 19 19 19 19 20 20 21 21 21 21 21 20 20 20 21 21 21 21 21 22 22 22 22 22 22 22 22 22 22 23 23 24 24 24 25 25 25 26 26 26 27 27 28 29 30 31 31 32 33
19 19 19 19 19 20 20 20 20 20 19 19 19 19 19 19 19 19 19 19 19 19 19 19 19 18 18 18 18 18 18 18 18 18 18 18 18 18 19 19 19 19 20 20 20 20 19 19 19 19 20 20 19 19 19 19 19 19 19 20 20 20 21 21 22 22 23 23 23 24 24 24 25 25 26 26 27 28 28 29 30 31 32 33 34
19 19 19 19 20 20 20 20 20 20 19 19 18 18 17 17 17 17 17 17 17 17 17 17 17 17 17 17 18 18 17 18 18 18 17 17 17 18 18 18 18 19 19 19 18 18 17 17 17 17 17 16 16 16 16 17 17 18 18 19 19 20 20 21 21 21 21 22 22 22 23 23 24 25 26 26 27 28 29 30 31 32 33 34 35
18 18 18 18 18 18 18 18 18 17 17 16 16 16 15 16 16 16 15 15 16 16 16 16 16 16 17 17 17 17 17 17 17 16 16 16 16 16 16 16 16 16 16 16 15 15 15 14 14 14 13 13 14 14 15 15 16 16 17 18 18 18 19 19 19 20 20 21 21 22 23 24 25 25 26 27 28 29 30 30 31 32 33 34 35
16 16 16 16 16 16 16 15 15 14 14 14 14 14 14 14 14 14 14 14 14 15 15 15 15 15 16 16 16 15 15 15 14 14 14 13 13 13 13 13 13 13 13 12 12 12 12 12 12 12 12 12 13 13 14 14 15 16 16 17 17 17 18 18 19 19 20 20 21 22 23 24 25 26 27 28 28 29 30 31 32 33 34 35 36
Wind_Direction
226 230 230 229 227 226 228 230 230 230 230 231 234 237 238 237 236 238 237 233 230 232 234 228 214 202 198 200 203 205 205 205 208 207 204 205 209 213 217 222 231 240 248 256 263 270 275 281 289 297 303 309 313 315 317 320 322 325 326 325 325 323 322 322 322 323 326 329 329 330 333 335 337 339 340 341 343 343 345 346 348 349 349 348 348
225 227 226 225 223 223 225 227 227 225 225 227 230 232 232 231 232 233 232 228 227 229 224 209 198 196 198 202 204 202 200 200 201 201 202 206 210 214 221 226 233 242 251 259 267 273 278 283 289 295 301 306 310 311 313 317 319 321 323 323 322 322 322 322 323 324 326 328 329 329 332 334 335 338 340 340 341 342 343 345 347 348 348 347 347
222 224 223 221 221 222 223 224 223 221 222 225 227 226 224 224 227 227 225 223 224 224 214 200 194 198 201 201 198 197 197 198 201 204 206 208 212 217 224 231 238 247 255 263 270 274 278 283 288 293 298 303 308 308 310 314 316 318 320 321 321 321 322 323 323 325 325 326 328 329 331 333 334 337 339 340 341 342 342 344 346 347 347 347 347
220 221 220 218 219 221 221 222 220 220 221 223 222 220 218 220 223 222 220 220 219 215 206 196 196 201 202 198 196 197 199 202 206 209 212 215 220 224 231 238 245 253 260 267 272 274 278 282 286 291 295 300 306 307 308 311 313 317 320 320 320 320 322 323 324 325 325 325 328 329 330 333 334 336 339 340 342 343 343 343 345 347 347 346 346
218 219 216 215 217 218 219 219 219 219 220 219 218 216 216 219 221 220 219 217 212 204 198 197 201 202 200 197 198 200 203 207 210 213 217 222 227 232 238 244 249 256 263 269 273 275 277 280 284 288 293 298 303 305 308 310 311 314 318 319 320 320 322 323 324 326 326 326 327 328 331 334 335 336 339 341 342 343 344 344 345 347 347 346 346
216 216 214 212 214 216 218 219 219 218 217 216 215 214 215 218 218 218 217 210 202 197 198 203 205 202 200 199 201 204 207 210 213 216 221 226 232 237 242 247 252 259 265 270 273 274 276 279 283 287 291 295 300 304 308 309 309 312 316 319 320 321 323 323 323 325 326 326 327 330 333 335 335 336 339 341 341 343 344 345 346 347 347 346 346
213 213 211 211 214 216 217 219 217 215 214 213 214 213 213 215 214 213 210 201 196 198 203 207 206 204 203 203 205 209 212 214 218 222 227 231 236 240 244 249 254 261 266 270 272 273 276 279 283 287 290 293 298 303 307 307 307 311 315 317 319 322 324 323 321 322 324 326 328 331 333 334 334 336 337 339 341 343 344 344 345 346 347 347 346
212 212 211 211 214 215 216 218 215 213 212 212 211 210 210 211 209 207 202 197 198 204 207 208 208 208 209 210 213 216 219 222 225 228 232 236 240 244 247 252 257 263 268 270 271 273 276 280 283 285 286 289 293 298 301 303 305 310 313 315 319 322 324 323 322 321 323 325 328 331 332 332 333 335 336 339 341 342 343 343 343 344 345 346 346
212 211 210 211 213 214 215 216 215 212 211 209 208 208 208 209 207 204 200 200 205 209 211 212 213 213 214 217 220 223 226 230 232 233 236 240 244 247 250 255 261 265 268 270 271 273 277 280 282 282 283 287 290 293 296 299 302 306 309 313 318 322 323 323 323 322 323 325 328 330 331 332 332 334 335 338 339 340 341 342 342 343 343 344 346
211 210 210 211 212 213 214 216 215 213 211 209 208 208 208 208 207 204 203 205 210 214 216 218 219 220 222 224 227 230 234 236 236 236 240 244 247 250 254 259 263 266 268 270 272 274 276 278 279 280 282 284 287 289 292 296 298 301 304 309 315 320 322 322 323 322 323 325 327 329 331 331 332 333 333 335 337 339 340 340 341 342 343 343 345
210 209 209 210 212 213 215 215 216 214 212 210 210 209 210 210 209 207 207 210 214 219 222 224 225 227 229 231 234 236 239 240 239 240 243 247 251 253 257 261 264 267 269 270 271 272 274 276 277 279 280 281 283 285 289 292 294 296 299 306 312 316 319 321 321 321 322 323 325 328 329 330 331 332 332 333 335 337 338 338 339 341 342 342 343
209 209 209 210 212 215 216 216 216 215 212 211 211 211 212 212 211 211 212 215 219 223 227 229 231 232 235 238 240 241 244 244 243 246 248 250 253 256 260 262 265 267 269 269 269 269 271 274 277 277 277 277 279 282 285 288 289 291 295 301 307 311 314 316 318 319 319 321 324 326 328 329 330 330 330 331 333 334 335 337 338 339 339 340 341
208 209 210 211 214 216 217 217 217 215 214 213 212 213 215 215 215 216 217 220 224 228 232 235 237 237 240 243 244 247 249 249 249 251 252 253 255 258 262 263 265 267 267 268 267 266 269 273 276 277 276 274 276 279 282 284 286 287 291 296 301 305 307 310 313 315 315 317 321 324 327 328 328 328 329 328 329 331 332 334 336 337 338 339 340
209 210 212 213 216 217 218 218 218 216 215 215 215 217 217 219 220 221 223 225 228 233 238 242 243 243 245 247 249 251 253 253 254 255 256 256 257 260 262 264 265 266 266 266 265 265 270 274 276 279 278 273 274 277 280 281 283 285 289 294 297 299 300 303 308 311 312 313 317 321 324 325 325 326 327 327 327 328 330 332 333 335 336 338 340
211 213 214 215 217 218 219 219 219 218 217 216 218 219 220 222 225 227 229 232 234 239 244 247 248 248 249 250 252 255 256 256 257 258 258 258 258 260 262 264 265 265 265 265 264 267 272 275 276 279 277 272 273 275 276 278 281 284 288 292 295 295 296 298 303 307 308 309 312 316 319 321 321 322 325 326 325 326 328 329 331 333 336 339 341
212 214 215 216 218 219 219 220 220 219 218 218 220 222 223 226 229 231 234 237 239 242 246 249 250 251 253 253 254 257 258 258 258 259 259 259 259 260 262 263 264 264 264 265 266 268 272 273 275 276 273 271 273 274 274 276 279 283 287 290 291 292 294 296 299 303 304 305 308 313 316 318 319 320 323 324 323 325 328 329 330 333 336 337 339
212 214 215 217 219 220 220 220 221 220 220 221 223 225 227 230 232 234 236 239 242 244 247 250 251 253 255 255 255 258 259 259 259 259 259 259 259 258 259 262 264 264 264 266 267 269 270 271 272 274 271 270 272 272 271 274 278 282 286 288 289 291 293 296 299 302 303 305 309 313 315 316 317 319 321 323 323 325 328 329 330 332 334 335 336
212 214 215 218 219 221 222 223 223 222 222 224 226 228 230 233 235 237 239 241 244 247 249 251 253 255 256 256 257 259 260 260 259 259 259 259 258 257 258 262 264 263 263 264 266 268 269 268 269 271 270 269 269 269 269 271 276 281 283 285 288 290 292 296 299 300 303 307 310 313 315 315 317 318 321 322 323 324 325 327 328 330 331 332 333
212 214 216 219 220 222 225 226 226 225 226 227 229 231 233 235 237 239 241 244 247 249 252 254 256 258 258 257 258 260 260 260 260 260 261 260 258 257 259 263 263 261 261 263 265 267 267 267 268 269 268 267 267 268 268 270 273 278 281 284 287 290 292 295 298 299 301 305 309 311 313 315 316 317 319 321 322 321 322 324 326 327 328 330 331
213 215 216 218 220 223 226 227 228 229 230 231 233 235 236 237 238 240 242 245 248 251 253 256 258 259 259 258 259 261 262 262 261 261 261 260 258 257 259 262 262 261 261 263 265 266 266 267 268 267 266 266 267 268 268 269 272 276 279 283 286 289 292 294 296 297 299 303 306 308 311 312 313 315 318 320 321 321 320 320 322 325 326 328 329
213 215 216 218 221 225 228 230 231 233 234 235 236 237 238 239 239 240 242 245 247 249 253 257 260 262 262 262 262 264 265 265 263 261 260 258 257 257 259 262 262 262 262 263 264 265 265 266 267 266 265 266 267 267 267 269 272 275 278 282 284 287 291 293 294 296 298 301 304 306 308 309 311 314 317 319 320 320 320 319 320 323 325 326 327
214 215 216 219 224 229 232 233 235 237 238 238 239 239 239 240 240 241 243 243 246 250 255 260 263 265 266 265 265 267 269 269 267 265 261 257 256 257 260 262 264 264 263 264 265 265 265 266 265 263 263 266 267 267 267 269 271 275 278 281 284 287 290 291 292 294 297 300 302 304 305 307 310 313 315 316 317 319 319 318 319 321 322 323 324
216 216 218 222 227 232 234 233 235 237 238 239 240 239 239 239 240 241 243 245 249 255 259 262 263 264 265 267 268 269 271 270 268 265 261 257 255 257 260 263 265 266 265 265 266 265 265 266 265 263 264 266 267 267 267 268 271 274 277 280 283 286 288 290 291 293 295 298 301 302 303 305 308 311 312 314 316 317 317 317 318 319 320 321 323
216 218 220 224 229 232 233 232 233 236 238 239 240 239 238 237 239 243 246 249 253 257 259 261 262 263 264 266 268 270 271 271 267 263 259 257 255 257 260 263 266 267 268 268 267 265 265 265 265 264 265 267 267 266 266 268 271 274 277 280 282 285 287 289 290 292 294 296 298 300 301 303 306 308 309 311 314 315 315 315 316 316 317 319 321
218 220 223 226 230 233 233 233 234 236 239 240 240 239 237 238 241 245 248 251 253 256 258 260 261 263 264 265 267 269 270 270 268 264 260 258 257 258 261 263 265 267 268 269 268 266 265 264 263 264 267 268 268 268 268 269 271 273 276 279 282 284 286 287 289 292 294 295 296 297 299 301 303 305 307 310 312 313 313 314 315 315 316 317 319
223 225 227 230 233 234 234 235 236 238 240 242 242 240 239 240 243 246 249 252 256 258 260 262 263 264 265 266 267 269 270 270 269 266 262 260 260 260 261 264 265 266 268 268 267 267 265 263 262 264 267 268 268 269 269 270 272 274 276 279 281 283 285 286 288 290 293 294 295 295 296 299 301 304 306 308 310 311 311 313 314 314 314 315 318
227 230 232 234 235 235 235 235 236 238 239 241 241 242 242 244 246 247 250 254 258 260 262 263 265 265 266 267 268 269 271 271 270 267 264 262 262 262 262 264 264 265 266 267 266 266 265 264 263 264 266 267 267 269 270 270 272 274 276 279 280 282 283 285 286 289 291 292 293 294 296 298 301 304 306 307 308 309 311 312 313 313 312 314 316
230 233 234 235 235 236 236 237 237 238 239 240 242 244 245 247 250 252 255 257 260 262 263 264 265 266 267 268 269 270 270 271 270 268 265 262 261 261 263 264 263 263 263 264 265 266 266 264 264 264 265 266 267 268 269 270 272 274 276 278 280 281 283 284 285 288 290 290 291 293 295 298 301 304 305 306 307 308 310 311 312 311 311 312 314
232 234 234 235 236 237 238 239 239 240 242 244 247 250 251 252 255 257 260 261 262 264 266 266 267 268 269 271 271 270 270 270 271 270 267 263 261 261 262 262 261 262 262 262 264 267 267 265 265 265 266 266 267 268 270 271 272 274 275 277 279 281 282 283 285 286 288 289 290 291 293 296 300 302 304 305 305 307 308 309 309 309 310 312 312
234 235 235 236 237 238 240 241 242 244 246 248 251 254 257 260 261 262 263 264 264 266 267 269 270 271 272 273 273 271 271 272 273 273 271 267 263 261 260 260 260 261 261 262 265 267 267 266 265 266 267 267 267 269 271 272 273 275 275 276 278 280 282 283 284 285 286 288 289 290 292 295 298 300 301 302 303 304 306 307 307 308 309 309 309
235 236 237 238 239 240 241 243 244 247 250 251 252 254 257 260 264 266 266 266 266 267 268 270 270 271 272 274 274 273 272 272 272 273 273 269 264 261 260 259 259 259 260 263 265 267 267 266 266 267 268 269 269 270 272 273 273 274 275 276 278 280 282 283 284 284 284 285 288 291 292 294 296 297 298 299 300 302 304 306 306 306 306 306 306
238 238 239 240 241 242 243 245 246 248 250 251 252 253 255 257 261 266 268 268 267 269 270 271 271 270 271 273 274 274 273 271 270 272 273 270 266 263 261 260 260 260 262 264 265 267 267 267 267 267 268 270 270 270 271 273 274 275 276 277 279 280 281 282 282 283 282 283 286 289 291 292 293 295 296 297 299 301 303 304 305 305 305 305 305
242 239 240 241 242 243 245 246 246 248 249 250 251 253 254 256 258 263 267 268 269 271 272 273 272 271 271 272 274 275 274 271 270 271 273 272 268 264 263 263 263 264 265 265 266 267 268 268 267 267 268 269 270 270 271 273 275 277 278 279 279 280 281 281 282 282 282 282 283 286 289 291 292 294 295 297 299 301 303 303 304 304 305 305 305
243 241 239 240 241 244 246 247 248 249 250 252 252 253 255 256 258 260 263 265 268 270 271 273 273 273 273 273 275 277 276 273 272 272 272 271 269 266 266 268 268 268 268 267 267 267 267 267 267 267 267 267 268 269 270 273 276 278 279 278 279 280 282 282 281 281 281 282 284 286 289 291 292 293 295 297 300 301 302 303 304 304 305 305 306
243 241 240 241 243 246 248 249 250 251 252 253 254 255 257 258 259 260 261 264 266 268 270 272 274 275 275 274 275 276 276 275 275 274 271 270 269 268 269 271 272 271 270 270 269 268 267 267 268 268 268 268 269 270 272 274 277 279 280 280 279 280 282 282 282 283 283 285 286 287 288 290 291 293 295 297 299 301 301 302 303 304 305 306 307
243 243 242 244 246 249 250 251 252 252 254 254 255 257 258 260 261 261 262 264 266 268 270 272 274 275 276 276 277 277 277 277 276 273 270 268 266 266 268 270 272 273 273 273 272 271 269 268 269 270 270 270 271 272 273 275 278 280 281 280 280 281 282 283 284 284 285 286 286 287 288 290 292 294 296 298 299 299 300 301 302 303 304 306 307
245 245 245 246 248 250 252 254 254 255 255 256 257 259 260 260 261 262 263 265 266 268 270 272 273 275 277 278 278 278 278 278 277 273 269 267 266 267 269 272 273 275 275 274 273 272 270 270 272 272 273 273 274 274 275 276 279 280 281 281 281 281 282 283 285 285 286 287 288 289 290 292 293 295 297 298 299 299 300 300 301 303 304 306 307
247 248 247 247 249 251 253 254 255 256 257 258 259 260 260 261 262 263 264 265 265 266 269 272 274 276 277 278 279 279 278 277 274 272 270 269 268 270 272 273 275 276 275 275 274 273 272 272 274 275 275 276 276 276 276 278 280 281 281 282 283 283 283 284 285 286 287 288 289 290 291 293 295 296 297 298 298 299 300 301 301 303 304 306 306
248 249 248 249 251 252 253 254 255 256 257 258 259 260 260 261 263 263 262 261 262 265 269 272 274 276 277 279 279 278 276 273 271 271 270 270 270 272 274 276 277 276 276 275 274 273 273 273 275 276 277 278 278 277 277 279 281 283 283 284 286 286 286 286 287 288 289 289 290 291 293 294 296 297 297 298 298 299 300 300 301 303 304 305 305
249 249 248 249 251 253 254 255 254 255 256 258 258 259 260 261 262 262 261 260 262 264 267 270 273 275 276 277 277 276 275 273 271 271 271 270 271 273 275 277 278 278 277 276 275 274 275 275 277 278 279 280 280 280 280 281 282 283 284 286 287 288 288 289 289 290 291 292 292 293 294 295 296 297 297 297 298 299 300 300 301 302 303 304 304
250 249 248 248 250 252 253 254 255 255 256 258 258 259 260 261 262 263 263 263 264 265 267 269 272 274 275 275 276 277 277 275 273 272 271 271 272 274 276 277 278 279 278 278 276 276 276 277 279 281 283 284 284 283 282 282 282 283 285 287 287 288 289 290 291 292 292 292 293 294 294 295 296 296 297 298 299 299 300 300 301 302 303 303 304
250 250 249 250 251 252 252 254 255 256 257 258 259 260 261 262 263 263 264 264 265 266 267 270 272 273 274 274 276 278 278 277 275 273 273 273 274 276 277 278 279 279 279 278 278 277 277 279 281 282 284 285 285 284 283 282 283 284 286 286 287 288 290 291 292 292 292 292 293 294 295 296 296 297 298 298 299 299 300 300 301 302 303 304 305
251 251 251 253 253 254 254 255 255 256 257 258 259 260 261 262 262 263 264 265 266 266 268 270 272 274 275 276 277 277 277 277 276 275 274 274 275 277 278 279 280 280 280 280 280 280 280 280 281 282 283 284 284 284 284 284 285 286 287 288 289 291 292 292 292 292 292 293 294 295 296 296 297 298 299 299 300 300 301 302 303 304 304 305 306
253 253 253 254 255 256 256 256 256 257 257 258 259 259 259 260 261 263 265 266 265 266 269 272 273 274 276 278 277 276 275 276 276 276 275 275 276 277 278 278 279 280 281 281 281 281 281 281 282 283 283 283 283 284 285 286 287 288 289 290 291 292 292 292 293 293 294 295 296 297 298 298 299 300 301 301 302 302 303 303 304 305 306 307 307
254 254 256 257 257 257 257 258 259 259 260 260 260 260 259 260 261 263 264 265 265 268 271 273 274 274 275 277 277 276 275 274 275 276 276 276 276 276 277 278 279 281 282 283 282 282 281 281 282 282 283 284 284 285 286 288 289 290 290 291 291 291 292 293 294 296 296 297 297 298 299 300 302 302 303 303 304 304 305 305 306 307 307 308 308
256 256 258 258 258 257 258 258 258 258 259 259 259 259 259 260 261 262 264 265 267 269 272 273 274 274 275 276 277 276 274 273 274 275 276 276 277 277 277 278 280 282 282 283 283 282 282 282 281 282 282 284 285 286 287 288 289 290 291 291 292 293 295 296 297 298 299 299 300 301 302 302 303 304 304 304 304 305 306 307 307 308 308 309 309
258 259 259 259 258 258 259 259 258 259 259 259 258 258 259 260 262 263 264 266 268 270 271 272 273 275 276 277 278 277 275 274 275 278 278 278 279 280 280 281 282 282 283 284 285 285 284 283 282 283 284 285 286 287 288 289 290 291 293 295 296 297 298 299 299 300 301 302 303 303 303 303 303 303 304 304 305 306 307 308 308 309 309 310 310
259 259 259 259 259 259 259 260 260 260 260 260 259 258 259 260 261 262 263 265 267 269 270 271 273 275 278 279 279 278 277 276 278 280 280 280 281 281 281 282 283 284 286 287 287 286 286 285 285 286 287 287 287 288 289 290 292 294 296 298 299 299 300 301 301 302 303 304 304 304 303 303 303 304 306 307 308 308 309 309 310 310 311 312 312
259 259 260 260 260 260 259 259 259 258 258 258 257 256 256 257 258 259 261 264 267 268 270 272 274 276 278 278 278 278 278 277 278 279 279 280 281 282 282 283 284 286 287 288 287 287 288 288 288 288 288 288 288 290 291 293 296 297 298 300 301 301 302 303 303 304 304 304 305 305 306 306 307 308 309 310 310 310 310 311 312 313 313 314 314
260 260 260 260 260 260 259 258 257 256 255 253 252 251 252 254 256 258 261 265 269 271 271 272 274 276 278 279 279 279 278 277 278 278 279 280 282 283 284 285 287 288 289 289 289 289 289 289 288 289 289 290 292 294 295 297 299 300 301 303 304 304 305 305 305 306 307 307 308 309 310 310 310 310 310 311 311 311 312 313 314 315 315 315 316
260 259 259 258 258 258 257 255 253 251 249 247 247 248 250 253 256 259 262 266 270 271 271 272 275 278 280 282 282 281 280 279 279 280 282 283 285 286 288 289 290 291 291 290 290 290 290 290 291 293 294 295 297 299 300 302 303 304 305 306 306 307 308 308 309 309 310 311 312 313 313 312 312 311 312 312 313 314 315 316 316 316 317 317 317